Regional Weather Roundup
Issued by NWS Grand Forks, ND

Home | Current Version | Previous Version | Text Only | Print | Product List | Glossary On
Versions: 1 2 3 4 5 6 7 8 9 10 11 12 13 14 15 16 17 18 19 20 21 22 23 24 25 26 27 28 29 30 31 32 33 34 35 36 37 38 39 40 41 42 43 44 45 46 47 48 49 50
000
ASUS43 KFGF 041231
RWRFGF
PRAIRIE TO PINES  WEATHER ROUNDUP
NATIONAL WEATHER SERVICE EASTERN NORTH DAKOTA/GRAND FORKS ND
700 AM CDT WED MAY 04 2016

 **SATELLITE DATA USED TO AUGMENT SKY COVER AT AUTOMATED STATIONS**
 *****  WEATHER ACROSS EASTERN NORTH DAKOTA  *****

CITY           SKY/WX    TMP DP  RH WIND       PRES   REMARKS
GRAND FORKS    CLEAR     37  32  82 NW5       30.08R
6HR MIN TEMP:  33; 6HR MAX TEMP:  39;

GRAND FRKS AFB CLEAR     37  32  81 NW7       30.08R
DEVILS LAKE    CLEAR     36  34  92 W5        30.11R
6HR MIN TEMP:  34; 6HR MAX TEMP:  45;

FARGO          CLEAR     39  29  67 N8        30.07R
WAHPETON ARPT  SUNNY     41  30  65 N7        30.07R
$$

 ***** WEATHER ACROSS CENTRAL AND WESTERN NORTH DAKOTA  *****

CITY           SKY/WX    TMP DP  RH WIND       PRES   REMARKS
BISMARCK       CLEAR     37  32  82 CALM      30.12R
6HR MIN TEMP:  35; 6HR MAX TEMP:  48;

MINOT          PTCLDY    46  31  55 SE3       30.08R
6HR MIN TEMP:  44; 6HR MAX TEMP:  52;

JAMESTOWN      CLEAR     36  31  82 NW8       30.09R
6HR MIN TEMP:  32; 6HR MAX TEMP:  42;

MINOT AFB      PTCLDY    40  33  76 SE5       30.07S
GARRISON         N/A     42  34  73 CALM      30.10R
WILLISTON      CLEAR     48  40  73 SW5       30.06S
6HR MIN TEMP:  43; 6HR MAX TEMP:  50;

DICKINSON      CLEAR     44  34  67 S9        30.09R
6HR MIN TEMP:  40; 6HR MAX TEMP:  49;

HETTINGER      CLEAR     37  32  82 CALM      30.13S
6HR MIN TEMP:  32; 6HR MAX TEMP:  45;

$$

 *****  OTHER AIRPORT OBSERVATIONS IN OUR AREA  *****

CITY           SKY/WX    TMP DP  RH WIND       PRES   REMARKS
WALHALLA       FAIR      37  37 100 W3        30.12R
GRAFTON AIRPOR FAIR      41  34  75 NW7       30.12R
VALLEY CITY AR FAIR      37  37 100 NW10      30.11R
CANDO          FAIR      37  30  75 CALM      30.13S
CAVALIER APRT  FAIR      41  36  81 NW5       30.11R
GWINNER        FAIR      43  34  70 NW10      30.09R
SHEYENNE NWR     N/A     39  31  74 NW5       29.95S
ROLLA          FAIR      41  32  70 W6        30.11R
 ***** THE ABOVE OBSERVATIONS ARE NON NWS ARE NOT QUALITY
       CONTROLLED AND MAY MIS-REPORT RAIN FOR SNOW...
$$

  *****  WEATHER ACROSS NORTHERN MINNESOTA  *****

CITY           SKY/WX    TMP DP  RH WIND       PRES   REMARKS
FLAG ISLAND    CLEAR     43  34  70 N8        30.05S
WARROAD        CLEAR     37  36  93 NW5       30.07R
ROSEAU         CLEAR     39  34  81 CALM      30.07R
HALLOCK        CLEAR     39  34  81 N5        30.09R
THF RVR FALLS  CLEAR     43  34  70 N7        30.08R
6HR MIN TEMP:  37; 6HR MAX TEMP:  45;

BAUDETTE       CLEAR     41  34  76 N8        30.04R
6HR MIN TEMP:  38; 6HR MAX TEMP:  44;

WASKISH        CLEAR     43  36  75 N7        30.04R
CROOKSTON      CLEAR     37  32  81 N7        30.08R
STEPHEN NDAWN    N/A     36  30  80 N3          N/A
GREENBUSH NDAW   N/A     37  36  93 NW3         N/A
$$
  *****  WEATHER ACROSS CENTRAL AND WEST MINNESOTA  *****

CITY           SKY/WX    TMP DP  RH WIND       PRES   REMARKS
FOSSTON        CLEAR     39  36  87 N3        30.06R
BEMIDJI        CLEAR     38  36  91 NW3       30.03R
PARK RAPIDS    CLEAR     41  34  76 N7        30.02R
6HR MIN TEMP:  35; 6HR MAX TEMP:  50;

ELBOW LAKE     FAIR      43  37  81 W5        30.05R
6HR MIN TEMP:  38; 6HR MAX TEMP:  50;

WADENA         CLEAR     39  34  81 NW5       30.03R
DETROIT LAKES  CLEAR     41  36  81 NW5       30.05R
MOORHEAD       CLEAR     39  30  70 N7        30.07S
FERGUS FALLS   CLEAR     43  36  75 CALM      30.04R
MORRIS MN      CLEAR     39  34  81 NW7       30.04R
STAPLES        CLEAR     41  34  75 NW7       30.02R
$$
  *****  WEATHER ELSEWHERE ACROSS MINNESOTA  *****

CITY           SKY/WX    TMP DP  RH WIND       PRES   REMARKS
DULUTH         SUNNY     41  32  70 N9        29.93R
6HR MIN TEMP:  39; 6HR MAX TEMP:  46;

INTRNTL FALLS  SUNNY     37  32  82 NW8       30.01R
6HR MIN TEMP:  33; 6HR MAX TEMP:  43;

ELY            SUNNY     39  30  70 N5        29.95R
CLOQUET        SUNNY     43  32  65 NW9       29.95R
WHEATON        CLEAR     45  36  70 NW6       30.08R
BRAINERD       CLEAR     42  35  76 N7        30.00R
6HR MIN TEMP:  36; 6HR MAX TEMP:  50;

HIBBING        SUNNY     38  32  79 N12       29.96R
6HR MIN TEMP:  28; 6HR MAX TEMP:  38;

ALEXANDRIA     CLEAR     43  36  76 NW5       30.03R
6HR MIN TEMP:  40; 6HR MAX TEMP:  51;

SAINT CLOUD    CLEAR     40  33  76 NW3       29.98R
6HR MIN TEMP:  37; 6HR MAX TEMP:  50;

MINNEAPOLIS    CLEAR     48  33  56 N8        29.96R
6HR MIN TEMP:  45; 6HR MAX TEMP:  56;

$$

  *****  WEATHER ACROSS SOUTH DAKOTA  *****

CITY           SKY/WX    TMP DP  RH WIND       PRES   REMARKS
SIOUX FALLS    CLEAR     43  33  68 N8        30.04R
6HR MIN TEMP:  42; 6HR MAX TEMP:  49;

BROOKINGS      NOT AVBL
WATERTOWN      CLEAR     40  31  70 NW7       30.05R
6HR MIN TEMP:  37; 6HR MAX TEMP:  45;

HURON          CLEAR     36  33  89 NW5       30.09R
6HR MIN TEMP:  34; 6HR MAX TEMP:  46;

SISSETON         N/A     41  32  70 NW7       30.05R
ABERDEEN       CLEAR     40  33  76 NW9       30.10R
6HR MIN TEMP:  37; 6HR MAX TEMP:  45;

MITCHELL       CLEAR     41  36  82 NW9       30.09R
PIERRE         CLEAR     37  31  78 NW7       30.12R
6HR MIN TEMP:  35; 6HR MAX TEMP:  48;

MOBRIDGE       CLEAR     38  35  89 N6        30.10R
RAPID CITY     CLEAR     42  35  76 NW7       30.15R
6HR MIN TEMP:  42; 6HR MAX TEMP:  52;

$$

  *****  SOME WEATHER IN NEARBY STATES *****

CITY           SKY/WX    TMP DP  RH WIND       PRES   REMARKS
GLASGOW MT     CLEAR     49  39  68 E12       30.02S
6HR MIN TEMP:  49; 6HR MAX TEMP:  58;

GREAT FALLS MT CLEAR     50  35  56 S3        30.01S
6HR MIN TEMP:  43; 6HR MAX TEMP:  58;

CHEYENNE WY    CLEAR     39  31  72 W10       30.26R
6HR MIN TEMP:  39; 6HR MAX TEMP:  44;

SCOTTSBLUFF NE CLEAR     41  37  86 NW9       30.19R
6HR MIN TEMP:  41; 6HR MAX TEMP:  49;

OMAHA NE       CLEAR     48  37  65 N10       29.97R
6HR MIN TEMP:  47; 6HR MAX TEMP:  61;

DES MOINES IA  CLEAR     50  36  58 N13       29.90R
6HR MIN TEMP:  50; 6HR MAX TEMP:  62;

DAVENPORT IA   SUNNY     46  44  93 N13       29.79R
6HR MIN TEMP:  44; 6HR MAX TEMP:  50; 6HR PCP:  0.03;

CHICAGO IL     MOSUNNY   46  40  79 N12       29.70R
6HR MIN TEMP:  45; 6HR MAX TEMP:  57; 6HR PCP:  0.40;

EAU CLAIRE WI  SUNNY     44  34  67 NW8       29.90R
6HR MIN TEMP:  39; 6HR MAX TEMP:  50;

LA CROSSE WI   SUNNY     46  38  73 N12       29.88R
6HR MIN TEMP:  43; 6HR MAX TEMP:  49;

$$

  *****  SOME NATIONAL WEATHER *****

CITY           SKY/WX    TMP DP  RH WIND       PRES   REMARKS
LA GUARDIA NY  CLOUDY    51  47  86 E7        29.81S
6HR MIN TEMP:  49; 6HR MAX TEMP:  51; 6HR PCP:  0.01;

RALEIGH NC     PTSUNNY   59  57  93 VRB5      29.72S
6HR MIN TEMP:  57; 6HR MAX TEMP:  64;

ATLANTA GA     SUNNY     55  49  80 NW12      29.83S
6HR MIN TEMP:  53; 6HR MAX TEMP:  60;

NEW ORLEANS LA PTCLDY    64  49  57 N15       29.95R
6HR MIN TEMP:  63; 6HR MAX TEMP:  69;

OKLAHOMA CITY  CLEAR     49  45  86 NW7       30.04R
6HR MIN TEMP:  48; 6HR MAX TEMP:  52;

ALBUQUERQUE NM CLEAR     51  32  48 N9        30.29R
6HR MIN TEMP:  51; 6HR MAX TEMP:  63;

SALT LAKE CITY PTCLDY    54  35  48 S9        30.13S
6HR MIN TEMP:  54; 6HR MAX TEMP:  59;

LOS ANGELES CA CLOUDY    58  54  86 W3        29.93S
6HR MIN TEMP:  56; 6HR MC1F1C2F2C3F3C4F4C5F5C6F6C7F7C8F8C9F9CaFaCbFbCcFcCd!



USA.gov is the U.S. government's official web portal to all federal, state and local government web resources and services.